Location: Lussas
(44.6119°N, 4.4726°E)
Time: 13:53:52
(UTC+00:00)

Cosmos 2181 Rocket - Pass Details

Date: 26 November 2020
Orbit: 951 x 1015 km, 82.9° (Epoch: 27 January)

Event Time Altitude Azimuth Distance (km) Brightness Sun altitude
Rises 05:18:40 0° 348° (NNW) 3,692 6.8 -16.5°
Reaches altitude 10° 05:21:15 10° 344° (NNW) 2,731 6.1 -16.0°
Maximum altitude 05:27:18 56° 268° (W) 1,140 4.0 -15.0°
Drops below altitude 10° 05:33:16 10° 192° (SSW) 2,678 6.4 -13.9°
Sets 05:35:46 0° 188° (S) 3,616 7.1 -13.5°
